BMCB-13 Weather Reports


Display with metric or nautical units.
time (UTC)temp
F
wind
direction
speed
MPH
gust
MPH
rain 1hr
in
rain 24hr
in
rain mn
in
humidity
%
barometer
mb
20260506194052 48 4 2.0 6.0 0.00 0.80 0.70 94 1010.4
20260506193050 48 5 3.0 7.0 0.00 0.81 0.70 94 1010.3
20260506192047 48 10 2.0 6.0 0.00 0.82 0.70 94 1010.2
20260506191049 48 157 3.0 7.0 0.00 0.83 0.70 94 1010.1
20260506190051 48 10 3.0 6.0 0.00 0.83 0.70 94 1010.0
20260506185049 48 26 3.0 8.0 0.00 0.84 0.70 94 1010.0
20260506183050 48 9 3.0 6.0 0.00 0.85 0.70 94 1009.8
20260506182049 48 5 3.0 8.0 0.00 0.86 0.70 93 1009.6
20260506181046 49 2 3.0 7.0 0.00 0.87 0.70 91 1009.5
20260506180048 49 356 2.0 5.0 0.00 0.87 0.70 90 1009.4
20260506175050 49 3 2.0 4.0 0.00 0.87 0.70 90 1009.3
20260506174048 49 358 2.0 4.0 0.00 0.87 0.70 91 1009.1
20260506173047 49 9 2.0 5.0 0.00 0.87 0.70 92 1009.1
20260506170045 49 1 2.0 5.0 0.00 0.87 0.70 91 1008.9
20260506165045 49 1 2.0 4.0 0.00 0.87 0.70 90 1008.9
20260506164046 50 186 2.0 5.0 0.00 0.87 0.70 91 1008.8
20260506163046 50 2 2.0 6.0 0.00 0.87 0.70 91 1008.7
20260506162049 50 3 3.0 6.0 0.00 0.87 0.70 90 1008.7
20260506161046 50 7 3.0 11.0 0.00 0.87 0.70 91 1008.7
20260506160046 50 359 4.0 9.0 0.00 0.87 0.70 90 1008.6
20260506155046 50 9 4.0 9.0 0.00 0.87 0.70 90 1008.6
20260506154052 50 11 4.0 11.0 0.00 0.87 0.70 90 1008.5
20260506153046 50 21 5.0 10.0 0.00 0.87 0.70 90 1008.5
20260506152048 51 274 5.0 10.0 0.00 0.87 0.70 91 1008.4
20260506151047 50 10 4.0 10.0 0.00 0.87 0.70 91 1008.4
20260506145048 50 11 5.0 11.0 0.00 0.87 0.70 91 1008.4
20260506144046 51 263 5.0 10.0 0.00 0.87 0.70 92 1008.3
20260506143046 50 6 4.0 10.0 0.00 0.87 0.70 92 1008.3
20260506142046 50 16 4.0 8.0 0.01 0.87 0.70 94 1008.4
20260506141047 50 304 4.0 10.0 0.01 0.87 0.70 94 1008.4
20260506140051 50 14 4.0 8.0 0.01 0.87 0.70 96 1008.4
20260506135047 49 15 4.0 10.0 0.01 0.87 0.70 96 1008.4
20260506134047 49 306 3.0 8.0 0.01 0.87 0.70 97 1008.4
20260506133048 49 10 4.0 11.0 0.01 0.87 0.70 98 1008.4
20260506131048 49 23 5.0 13.0 0.01 0.86 0.69 96 1008.3
20260506130045 50 57 4.0 9.0 0.02 0.86 0.69 96 1008.1
20260506125045 50 51 5.0 9.0 0.02 0.86 0.69 96 1008.0
20260506124047 51 11 4.0 12.0 0.02 0.86 0.69 95 1007.9
20260506123046 51 5 5.0 10.0 0.02 0.86 0.69 97 1007.8
20260506122046 50 26 5.0 13.0 0.02 0.86 0.69 96 1007.8
20260506120044 51 337 4.0 9.0 0.02 0.85 0.69 96 1007.5
20260506115045 51 332 4.0 8.0 0.02 0.84 0.68 96 1007.4
20260506112048 50 331 4.0 9.0 0.02 0.83 0.67 95 1007.4
20260506111048 51 1 4.0 8.0 0.03 0.83 0.67 95 1007.3
20260506110045 52 25 4.0 8.0 0.02 0.83 0.66 96 1007.3
20260506105046 51 248 4.0 9.0 0.03 0.83 0.66 96 1007.3
20260506104044 51 340 3.0 8.0 0.02 0.82 0.65 97 1007.4
20260506103048 50 339 3.0 8.0 0.03 0.82 0.65 98 1007.3
20260506102046 50 337 3.0 7.0 0.03 0.82 0.65 98 1007.2
20260506101045 50 342 3.0 8.0 0.02 0.81 0.65 98 1007.2
20260506100044 50 333 3.0 7.0 0.02 0.80 0.64 98 1007.1
20260506095047 50 339 3.0 6.0 0.03 0.80 0.64 98 1007.1
20260506094044 50 352 3.0 8.0 0.03 0.80 0.63 98 1007.0
20260506093045 50 349 3.0 6.0 0.04 0.80 0.63 99 1007.0
20260506092046 49 358 3.0 9.0 0.04 0.79 0.62 99 1006.9
20260506090045 49 344 3.0 7.0 0.05 0.79 0.62 99 1006.8
20260506085047 48 349 3.0 6.0 0.05 0.78 0.61 10 1006.8
20260506083043 48 97 4.0 10.0 0.05 0.76 0.60 10 1006.6
20260506082045 48 348 3.0 6.0 0.06 0.76 0.59 10 1006.5
20260506081044 48 206 3.0 8.0 0.05 0.75 0.58 10 1006.4
20260506073044 48 12 3.0 8.0 0.04 0.72 0.56 10 1006.1
20260506071044 48 344 3.0 9.0 0.02 0.70 0.54 10 1006.0
20260506062045 47 344 3.0 6.0 0.03 0.69 0.52 10 1005.7
20260506061043 47 337 3.0 7.0 0.04 0.68 0.51 10 1005.7
20260506051044 47 349 2.0 6.0 0.06 0.65 0.49 10 1005.7
20260506045042 47 351 3.0 6.0 0.05 0.62 0.46 10 1005.7
20260506044044 47 348 3.0 9.0 0.05 0.61 0.45 10 1005.7
20260506043046 47 96 2.0 7.0 0.05 0.61 0.44 10 1005.7
20260506042043 47 344 3.0 8.0 0.06 0.60 0.43 10 1005.6
20260506040046 47 109 3.0 7.0 0.08 0.59 0.43 10 1005.7
20260506035046 47 359 3.0 7.0 0.09 0.58 0.42 10 1005.7
20260506034052 47 356 3.0 8.0 0.10 0.57 0.41 10 1005.8
20260506033044 47 347 3.0 9.0 0.12 0.57 0.40 10 1005.8
20260506032043 47 304 3.0 7.0 0.13 0.56 0.39 10 1005.8
20260506030043 47 346 3.0 8.0 0.13 0.54 0.37 10 1006.0
20260506025045 47 272 3.0 8.0 0.12 0.51 0.35 10 1006.0
20260506024044 47 354 4.0 8.0 0.11 0.50 0.33 10 1006.1
20260506023044 47 359 3.0 8.0 0.10 0.47 0.31 10 1006.1
20260506021045 48 215 3.0 7.0 0.08 0.43 0.26 10 1006.2
20260506020047 48 142 4.0 7.0 0.09 0.42 0.25 10 1006.2
20260506015045 48 1 4.0 9.0 0.08 0.40 0.24 10 1006.2
20260506014045 48 301 3.0 6.0 0.08 0.39 0.23 10 1006.2
20260506013045 48 360 4.0 9.0 0.09 0.39 0.22 10 1006.2
20260506012044 48 316 4.0 11.0 0.09 0.37 0.20 10 1006.3
20260506011044 48 1 4.0 9.0 0.09 0.35 0.19 10 1006.3
20260506005044 48 2 4.0 9.0 0.07 0.33 0.17 10 1006.4
20260506004045 48 5 4.0 10.0 0.07 0.32 0.16 10 1006.5
20260506003044 48 4 5.0 11.0 0.07 0.31 0.15 10 1006.6
20260506002046 48 278 4.0 8.0 0.06 0.30 0.13 10 1006.6
20260506001045 48 3 4.0 9.0 0.06 0.28 0.12 10 1006.8
20260505235046 48 8 4.0 9.0 0.05 0.26 0.09 10 1006.9
20260505234045 48 8 4.0 10.0 0.06 0.26 0.09 10 1006.9
20260505233046 48 86 4.0 11.0 0.06 0.25 0.09 10 1006.9
20260505232047 49 268 4.0 10.0 0.06 0.24 0.08 10 1007.0
20260505231046 49 7 3.0 8.0 0.06 0.24 0.07 10 1007.0
20260505230048 49 6 4.0 9.0 0.06 0.23 0.06 10 1007.1
20260505225049 49 212 4.0 9.0 0.06 0.22 0.06 10 1007.1
20260505224047 49 5 3.0 8.0 0.06 0.21 0.05 10 1007.1
20260505223048 49 13 4.0 10.0 0.06 0.20 0.04 10 1007.1
20260505222047 49 20 3.0 6.0 0.06 0.20 0.03 10 1007.2
20260505221047 49 28 3.0 7.0 0.05 0.18 0.02 10 1007.2
20260505214050 49 39 5.0 11.0 0.05 0.16 0.16 99 1007.3
20260505213051 49 34 5.0 12.0 0.05 0.15 0.15 99 1007.4
20260505212051 49 31 5.0 10.0 0.06 0.15 0.15 99 1007.4
20260505211050 49 25 6.0 13.0 0.06 0.14 0.14 99 1007.5
20260505210047 49 278 6.0 12.0 0.06 0.13 0.13 99 1007.5
20260505205048 50 27 3.0 7.0 0.06 0.13 0.13 99 1007.5
20260505204051 50 25 4.0 9.0 0.06 0.12 0.12 10 1007.5
20260505203047 50 28 3.0 6.0 0.06 0.11 0.11 99 1007.5
20260505202050 50 27 4.0 9.0 0.06 0.10 0.10 99 1007.5
20260505200049 50 78 5.0 10.0 0.06 0.09 0.09 99 1007.4
20260505195046 50 28 5.0 10.0 0.06 0.08 0.08 99 1007.4